Weather History for Ft. Stewart, GA

Change the Weather History Date:

Monday, March 25, 2013

  Actual Average Record
Temperature  
Mean Temperature 52 °F -  
Max Temperature 59 °F 74 °F 88 °F (2007)
Min Temperature 44 °F 48 °F 33 °F (1968)
Degree Days  
Heating Degree Days 14    
Growing Degree Days 2 (Base 50)    
Moisture  
Dew Point 33 °F    
Average Humidity 50    
Maximum Humidity 94    
Minimum Humidity 25    
Precipitation  
Precipitation 0.00 in - - ()
Sea Level Pressure  
Sea Level Pressure 29.81 in    
Wind  
Wind Speed 12 mph (West)    
Max Wind Speed 23 mph    
Max Gust Speed 39 mph    
Visibility 10 miles    
Events      
Averages and records for this station are not official NWS values.
T = Trace of Precipitation, MM = Missing Value Source: NWS Daily Summary

Daily Weather History Graph

Daily Weather History Graph

Search for Another Location

Airport:

Trip Planner

Search our weather history database for the weather conditions in past years. The results will help you decide how hot, cold, wet, or windy it might be!

Date:

Astronomy

Mar. 25, 2013 Rise Set
Actual Time 7:23 AM EDT 7:41 PM EDT
Civil Twilight 6:58 AM EDT 8:05 PM EDT
Nautical Twilight 6:30 AM EDT 8:34 PM EDT
Astronomical Twilight 6:01 AM EDT 9:03 PM EDT
Moon 6:14 PM EDT (3/25) 6:00 AM EDT (3/25)
Length of Visible Light 13h 06m
Length of Day
12h 18m
Waxing Gibbous, 96% of the Moon is Illuminated
Mar 25
Waxing Gibbous
Mar 27
Full
Apr 3
Last Quarter
Apr 10
New
Apr 18
First Quarter

Hourly Weather History & Observations

Time (EDT) Temp. Windchill Dew Point Humidity Pressure Visibility Wind Dir Wind Speed Gust Speed Precip Events Conditions
12:53 AM 57.2 °F - 55.4 °F 94% 29.64 in 10.0 mi West 4.6 mph - N/A   Overcast
12:58 AM 57.4 °F - 55.4 °F 93% 29.65 in 10.0 mi West 3.5 mph - N/A   Overcast
1:23 AM 57.2 °F - 55.4 °F 94% 29.65 in 10.0 mi WNW 4.6 mph - N/A   Overcast
1:43 AM 57.2 °F - 55.4 °F 94% 29.66 in 10.0 mi WNW 6.9 mph - N/A   Overcast
1:58 AM 57.2 °F - 54.9 °F 92% 29.67 in 10.0 mi WNW 8.1 mph - N/A   Overcast
2:58 AM 55.4 °F - 42.1 °F 61% 29.69 in 10.0 mi West 17.3 mph 23.0 mph N/A   Clear
3:58 AM 53.2 °F - 39.4 °F 59% 29.70 in 10.0 mi West 15.0 mph 26.5 mph N/A   Clear
4:58 AM 51.1 °F - 39.7 °F 65% 29.73 in 10.0 mi WNW 13.8 mph - N/A   Clear
5:58 AM 48.0 °F - 34.3 °F 59% 29.76 in 10.0 mi WNW 18.4 mph 26.5 mph N/A   Clear
6:58 AM 45.1 °F 37.9 °F 30.9 °F 58% 29.79 in 10.0 mi WNW 17.3 mph 25.3 mph N/A   Clear
7:58 AM 44.4 °F 36.9 °F 31.3 °F 60% 29.82 in 10.0 mi West 17.3 mph - N/A   Clear
8:58 AM 46.2 °F 38.3 °F 29.7 °F 53% 29.84 in 10.0 mi West 21.9 mph 31.1 mph N/A   Clear
9:58 AM 48.2 °F - 29.7 °F 49% 29.84 in 10.0 mi West 21.9 mph 27.6 mph N/A   Clear
10:58 AM 50.4 °F - 30.7 °F 47% 29.85 in 10.0 mi West 16.1 mph 28.8 mph N/A   Clear
11:52 AM 53.6 °F - 32.0 °F 44% 29.85 in 10.0 mi WSW 20.7 mph 27.6 mph N/A   Clear
11:58 AM 53.1 °F - 30.6 °F 42% 29.86 in 10.0 mi WSW 20.7 mph 31.1 mph N/A   Clear
12:58 PM 55.0 °F - 27.7 °F 35% 29.85 in 10.0 mi WSW 19.6 mph 31.1 mph N/A   Clear
1:58 PM 57.6 °F - 25.2 °F 29% 29.84 in 10.0 mi West 19.6 mph 34.5 mph N/A   Clear
2:22 PM 57.2 °F - 23.0 °F 27% 29.83 in 10.0 mi WNW 21.9 mph 39.1 mph N/A   Clear
2:58 PM 57.6 °F - 23.4 °F 27% 29.83 in 10.0 mi NW 21.9 mph 32.2 mph N/A   Clear
3:03 PM 57.2 °F - 23.0 °F 27% 29.82 in 10.0 mi West 18.4 mph 31.1 mph N/A   Clear
3:58 PM 58.3 °F - 25.0 °F 28% 29.83 in 10.0 mi West 20.7 mph 34.5 mph N/A   Clear
4:58 PM 59.2 °F - 23.5 °F 25% 29.83 in 10.0 mi West 20.7 mph 33.4 mph N/A   Clear
5:58 PM 58.5 °F - 22.8 °F 25% 29.84 in 10.0 mi WNW 23.0 mph 32.2 mph N/A   Clear
6:58 PM 56.8 °F - 20.8 °F 25% 29.86 in 10.0 mi West 16.1 mph 23.0 mph N/A   Clear
7:58 PM 53.1 °F - 20.7 °F 28% 29.90 in 10.0 mi WNW 9.2 mph - N/A   Clear
8:58 PM 49.5 °F - 23.7 °F 37% 29.94 in 10.0 mi WNW 4.6 mph - N/A   Clear
9:58 PM 46.6 °F - 27.0 °F 46% 29.97 in 10.0 mi WNW 5.8 mph - N/A   Clear
10:58 PM 47.3 °F - 25.2 °F 42% 30.00 in 10.0 mi NW 8.1 mph - N/A   Clear
11:58 PM 45.5 °F 39.2 °F 23.2 °F 41% 30.03 in 10.0 mi NW 13.8 mph 19.6 mph N/A   Clear